Retour au catalogue

STARLINK-32141

ActifCommunicationsVLEO
NORAD 60290·PAYLOAD·🇺🇸 United States

Lancé Jul 28, 2024 depuis Cape Canaveral Space Force Station

Loading…

Prochains Passages (prochaines 24 heures)

TLE

FraisSource: CelesTrak SupGP

Époque: Sep 15, 2026, 02:39 UTC

1 60290C 24132N   26258.11090278 -.00036437  00000+0 -10764-2 0  2582
2 60290  53.1571 250.8571 0001356  92.8054 354.1773 15.34413142    11

Suivez STARLINK-32141 en temps réel avec AllMySat

Download on the App Store